Time,TemperatureF,DewpointF,PressureIn,WindDirection,WindDirectionDegrees,WindSpeedMPH,WindSpeedGustMPH,Humidity,HourlyPrecipIn,Conditions,Clouds,dailyrainin,SoftwareType,DateUTC
2013-06-15 00:05:00,69.3,62.5,29.97,ENE,77,0.0,0.0,79,0.00,,,0.00,Wunderground v.1.15,2013-06-15 04:05:00,
2013-06-15 00:09:00,69.4,62.6,29.97,ENE,77,1.0,1.0,79,0.00,,,0.00,Wunderground v.1.15,2013-06-15 04:09:00,
2013-06-15 00:15:00,69.4,62.6,29.98,ENE,77,1.0,1.0,79,0.00,,,0.00,Wunderground v.1.15,2013-06-15 04:15:00,
2013-06-15 00:25:00,69.4,62.6,29.98,ENE,77,1.0,2.0,79,0.00,,,0.00,Wunderground v.1.15,2013-06-15 04:25:00,
2013-06-15 00:35:00,69.3,62.5,29.98,ENE,77,1.0,2.0,79,0.00,,,0.00,Wunderground v.1.15,2013-06-15 04:35:00,
2013-06-15 00:45:00,69.1,62.3,29.99,ENE,77,1.0,2.0,79,0.00,,,0.00,Wunderground v.1.15,2013-06-15 04:45:00,
2013-06-15 00:55:00,68.9,62.1,29.99,ENE,77,0.0,1.0,79,0.00,,,0.00,Wunderground v.1.15,2013-06-15 04:55:00,
2013-06-15 01:05:00,68.6,62.2,30.00,ENE,77,1.0,1.0,80,0.00,,,0.00,Wunderground v.1.15,2013-06-15 05:05:00,
2013-06-15 01:15:00,68.3,61.9,30.00,ENE,77,0.0,1.0,80,0.00,,,0.00,Wunderground v.1.15,2013-06-15 05:15:00,
2013-06-15 01:25:00,68.5,62.1,30.00,ENE,77,0.0,1.0,80,0.00,,,0.00,Wunderground v.1.15,2013-06-15 05:25:00,
2013-06-15 01:35:00,68.1,62.0,30.00,ENE,77,0.0,0.0,81,0.00,,,0.00,Wunderground v.1.15,2013-06-15 05:35:00,
2013-06-15 01:45:00,67.7,62.0,30.00,ENE,77,0.0,0.0,82,0.00,,,0.00,Wunderground v.1.15,2013-06-15 05:45:00,
2013-06-15 01:50:00,67.5,62.2,30.00,ENE,77,0.0,0.0,83,0.00,,,0.00,Wunderground v.1.15,2013-06-15 05:50:00,
2013-06-15 01:55:00,67.4,62.1,30.00,ENE,77,0.0,0.0,83,0.00,,,0.00,Wunderground v.1.15,2013-06-15 05:55:00,
2013-06-15 02:05:00,67.4,62.1,30.01,ENE,77,0.0,0.0,83,0.00,,,0.00,Wunderground v.1.15,2013-06-15 06:05:00,
2013-06-15 02:15:00,66.9,61.9,30.01,ENE,77,0.0,0.0,84,0.00,,,0.00,Wunderground v.1.15,2013-06-15 06:15:00,
2013-06-15 02:20:00,67.0,62.0,30.01,ENE,77,0.0,0.0,84,0.00,,,0.00,Wunderground v.1.15,2013-06-15 06:20:00,
2013-06-15 02:30:00,66.8,61.8,30.01,ENE,77,0.0,0.0,84,0.00,,,0.00,Wunderground v.1.15,2013-06-15 06:30:00,
2013-06-15 02:40:00,66.8,61.8,30.01,ENE,77,0.0,0.0,84,0.00,,,0.00,Wunderground v.1.15,2013-06-15 06:40:00,
2013-06-15 02:50:00,66.8,61.1,30.01,ENE,77,0.0,0.0,82,0.00,,,0.00,Wunderground v.1.15,2013-06-15 06:50:00,
2013-06-15 03:00:00,66.9,61.6,30.01,ENE,77,0.0,0.0,83,0.00,,,0.00,Wunderground v.1.15,2013-06-15 07:00:00,
2013-06-15 03:10:00,66.6,61.3,30.01,ENE,77,0.0,0.0,83,0.00,,,0.00,Wunderground v.1.15,2013-06-15 07:10:00,
2013-06-15 03:20:00,66.3,61.3,30.00,ENE,77,0.0,0.0,84,0.00,,,0.00,Wunderground v.1.15,2013-06-15 07:20:00,
2013-06-15 03:30:00,65.8,60.8,30.00,ENE,77,0.0,0.0,84,0.00,,,0.00,Wunderground v.1.15,2013-06-15 07:30:00,
2013-06-15 03:40:00,65.3,60.7,30.00,ENE,77,0.0,0.0,85,0.00,,,0.00,Wunderground v.1.15,2013-06-15 07:40:00,
2013-06-15 03:50:00,65.9,60.6,30.00,ENE,77,0.0,0.0,83,0.00,,,0.00,Wunderground v.1.15,2013-06-15 07:50:00,
2013-06-15 04:00:00,65.8,60.5,30.00,ENE,77,0.0,1.0,83,0.00,,,0.00,Wunderground v.1.15,2013-06-15 08:00:00,
2013-06-15 04:10:00,65.4,60.1,30.00,ENE,77,0.0,0.0,83,0.00,,,0.00,Wunderground v.1.15,2013-06-15 08:10:00,
2013-06-15 04:20:00,65.7,60.1,30.00,ENE,77,0.0,1.0,82,0.00,,,0.00,Wunderground v.1.15,2013-06-15 08:20:00,
2013-06-15 04:30:00,65.7,60.1,30.00,ENE,77,0.0,0.0,82,0.00,,,0.00,Wunderground v.1.15,2013-06-15 08:30:00,
2013-06-15 04:35:00,65.7,60.1,30.00,ENE,77,0.0,0.0,82,0.00,,,0.00,Wunderground v.1.15,2013-06-15 08:35:00,
2013-06-15 04:45:00,65.5,59.9,30.00,ENE,77,0.0,1.0,82,0.00,,,0.00,Wunderground v.1.15,2013-06-15 08:45:00,
2013-06-15 04:55:00,65.1,59.8,30.00,ENE,77,0.0,0.0,83,0.00,,,0.00,Wunderground v.1.15,2013-06-15 08:55:00,
2013-06-15 05:05:00,64.6,59.7,30.00,ENE,77,0.0,0.0,84,0.00,,,0.00,Wunderground v.1.15,2013-06-15 09:05:00,
2013-06-15 05:15:00,64.4,59.8,30.00,ENE,77,0.0,0.0,85,0.00,,,0.00,Wunderground v.1.15,2013-06-15 09:15:00,
2013-06-15 05:25:00,63.9,59.6,30.00,ENE,77,0.0,0.0,86,0.00,,,0.00,Wunderground v.1.15,2013-06-15 09:25:00,
2013-06-15 05:30:00,63.8,59.5,30.00,ENE,77,0.0,0.0,86,0.00,,,0.00,Wunderground v.1.15,2013-06-15 09:30:00,
2013-06-15 05:35:00,63.6,59.7,30.01,ENE,77,0.0,0.0,87,0.00,,,0.00,Wunderground v.1.15,2013-06-15 09:35:00,
2013-06-15 05:45:00,63.2,59.6,30.01,ENE,77,0.0,0.0,88,0.00,,,0.00,Wunderground v.1.15,2013-06-15 09:45:00,
2013-06-15 05:55:00,63.4,59.8,30.01,ENE,77,0.0,0.0,88,0.00,,,0.00,Wunderground v.1.15,2013-06-15 09:55:00,
2013-06-15 06:05:00,63.4,60.1,30.01,ENE,77,0.0,0.0,89,0.00,,,0.00,Wunderground v.1.15,2013-06-15 10:05:00,
2013-06-15 06:15:00,63.3,60.3,30.01,ENE,77,0.0,0.0,90,0.00,,,0.00,Wunderground v.1.15,2013-06-15 10:15:00,
2013-06-15 06:25:00,63.1,60.1,30.02,ENE,77,0.0,0.0,90,0.00,,,0.00,Wunderground v.1.15,2013-06-15 10:25:00,
2013-06-15 06:35:00,62.9,60.2,30.02,ENE,77,0.0,0.0,91,0.00,,,0.00,Wunderground v.1.15,2013-06-15 10:35:00,
2013-06-15 06:45:00,63.6,60.6,30.03,ENE,77,0.0,0.0,90,0.00,,,0.00,Wunderground v.1.15,2013-06-15 10:45:00,
2013-06-15 06:55:00,64.5,61.2,30.04,ENE,77,0.0,0.0,89,0.00,,,0.00,Wunderground v.1.15,2013-06-15 10:55:00,
2013-06-15 07:05:00,65.3,61.7,30.04,ENE,77,0.0,2.0,88,0.00,,,0.00,Wunderground v.1.15,2013-06-15 11:05:00,
2013-06-15 07:15:00,66.1,62.1,30.04,North,355,0.0,1.0,87,0.00,,,0.00,Wunderground v.1.15,2013-06-15 11:15:00,
2013-06-15 07:25:00,66.6,62.9,30.04,North,355,1.0,2.0,88,0.00,,,0.00,Wunderground v.1.15,2013-06-15 11:25:00,
2013-06-15 07:35:00,67.8,63.5,30.05,East,100,0.0,1.0,86,0.00,,,0.00,Wunderground v.1.15,2013-06-15 11:35:00,
2013-06-15 07:45:00,68.9,64.5,30.05,East,100,0.0,0.0,86,0.00,,,0.00,Wunderground v.1.15,2013-06-15 11:45:00,
2013-06-15 07:50:00,69.2,64.5,30.06,NE,49,0.0,2.0,85,0.00,,,0.00,Wunderground v.1.15,2013-06-15 11:50:00,
2013-06-15 08:00:00,70.1,65.0,30.06,ENE,74,1.0,1.0,84,0.00,,,0.00,Wunderground v.1.15,2013-06-15 12:00:00,
2013-06-15 08:09:00,71.0,65.6,30.06,ENE,74,0.0,0.0,83,0.00,,,0.00,Wunderground v.1.15,2013-06-15 12:09:00,
2013-06-15 08:15:00,71.8,66.0,30.06,ENE,74,0.0,0.0,82,0.00,,,0.00,Wunderground v.1.15,2013-06-15 12:15:00,
2013-06-15 08:25:00,72.7,66.5,30.07,ENE,74,1.0,1.0,81,0.00,,,0.00,Wunderground v.1.15,2013-06-15 12:25:00,
2013-06-15 08:35:00,73.7,67.1,30.07,NW,323,0.0,2.0,80,0.00,,,0.00,Wunderground v.1.15,2013-06-15 12:35:00,
2013-06-15 08:45:00,74.3,65.5,30.07,ENE,64,2.0,3.0,74,0.00,,,0.00,Wunderground v.1.15,2013-06-15 12:45:00,
2013-06-15 08:55:00,75.5,65.8,30.08,ESE,117,2.0,2.0,72,0.00,,,0.00,Wunderground v.1.15,2013-06-15 12:55:00,
2013-06-15 09:05:00,76.0,65.1,30.08,East,101,2.0,3.0,69,0.00,,,0.00,Wunderground v.1.15,2013-06-15 13:05:00,
2013-06-15 09:15:00,76.2,64.4,30.08,ESE,113,3.0,3.0,67,0.00,,,0.00,Wunderground v.1.15,2013-06-15 13:15:00,
2013-06-15 09:25:00,76.7,62.2,30.09,ESE,106,2.0,2.0,61,0.00,,,0.00,Wunderground v.1.15,2013-06-15 13:25:00,
2013-06-15 09:35:00,76.9,61.0,30.09,ESE,106,2.0,2.0,58,0.00,,,0.00,Wunderground v.1.15,2013-06-15 13:35:00,
2013-06-15 09:45:00,77.3,61.9,30.09,ESE,106,2.0,3.0,59,0.00,,,0.00,Wunderground v.1.15,2013-06-15 13:45:00,
2013-06-15 09:55:00,78.0,60.5,30.08,East,99,3.0,3.0,55,0.00,,,0.00,Wunderground v.1.15,2013-06-15 13:55:00,
2013-06-15 10:04:00,78.4,58.8,30.09,ESE,102,4.0,4.0,51,0.00,,,0.00,Wunderground v.1.15,2013-06-15 14:04:00,
2013-06-15 10:10:00,78.3,59.8,30.09,SE,128,4.0,4.0,53,0.00,,,0.00,Wunderground v.1.15,2013-06-15 14:10:00,
2013-06-15 10:20:00,79.0,59.3,30.09,NNW,344,2.0,4.0,51,0.00,,,0.00,Wunderground v.1.15,2013-06-15 14:20:00,
2013-06-15 10:30:00,78.8,59.1,30.09,East,83,3.0,3.0,51,0.00,,,0.00,Wunderground v.1.15,2013-06-15 14:30:00,
2013-06-15 10:40:00,78.9,59.8,30.09,NE,34,3.0,6.0,52,0.00,,,0.00,Wunderground v.1.15,2013-06-15 14:40:00,
2013-06-15 10:50:00,79.4,59.1,30.09,NE,53,4.0,4.0,50,0.00,,,0.00,Wunderground v.1.15,2013-06-15 14:50:00,
2013-06-15 11:00:00,79.8,57.8,30.09,East,94,6.0,6.0,47,0.00,,,0.00,Wunderground v.1.15,2013-06-15 15:00:00,
2013-06-15 11:10:00,79.9,58.5,30.09,NE,51,2.0,2.0,48,0.00,,,0.00,Wunderground v.1.15,2013-06-15 15:10:00,
2013-06-15 11:19:00,80.5,57.2,30.10,ENE,76,6.0,6.0,45,0.00,,,0.00,Wunderground v.1.15,2013-06-15 15:19:00,
2013-06-15 11:25:00,80.1,57.5,30.10,ENE,65,5.0,6.0,46,0.00,,,0.00,Wunderground v.1.15,2013-06-15 15:25:00,
2013-06-15 11:35:00,80.7,56.8,30.10,ESE,105,4.0,7.0,44,0.00,,,0.00,Wunderground v.1.15,2013-06-15 15:35:00,
2013-06-15 11:40:00,80.2,58.1,30.10,SE,124,5.0,5.0,47,0.00,,,0.00,Wunderground v.1.15,2013-06-15 15:40:00,
2013-06-15 11:50:00,80.5,61.3,30.10,ESE,113,4.0,4.0,52,0.00,,,0.00,Wunderground v.1.15,2013-06-15 15:50:00,
2013-06-15 11:59:00,80.2,58.1,30.10,SW,217,4.0,6.0,47,0.00,,,0.00,Wunderground v.1.15,2013-06-15 15:59:00,
2013-06-15 12:05:00,80.6,59.1,30.10,ESE,120,4.0,6.0,48,0.00,,,0.00,Wunderground v.1.15,2013-06-15 16:05:00,
2013-06-15 12:15:00,81.7,60.1,30.10,ESE,119,4.0,4.0,48,0.00,,,0.00,Wunderground v.1.15,2013-06-15 16:15:00,
2013-06-15 12:25:00,80.9,58.8,30.09,East,99,4.0,4.0,47,0.00,,,0.00,Wunderground v.1.15,2013-06-15 16:25:00,
2013-06-15 12:35:00,81.4,59.8,30.09,SSW,192,3.0,3.0,48,0.00,,,0.00,Wunderground v.1.15,2013-06-15 16:35:00,
2013-06-15 12:45:00,80.7,59.2,30.09,SSW,198,5.0,6.0,48,0.00,,,0.00,Wunderground v.1.15,2013-06-15 16:45:00,
2013-06-15 12:55:00,79.8,58.9,30.09,SSE,150,4.0,7.0,49,0.00,,,0.00,Wunderground v.1.15,2013-06-15 16:55:00,
2013-06-15 13:05:00,80.5,58.4,30.09,SSE,148,5.0,9.0,47,0.00,,,0.00,Wunderground v.1.15,2013-06-15 17:05:00,
2013-06-15 13:14:00,79.9,58.5,30.08,SSE,155,6.0,6.0,48,0.00,,,0.00,Wunderground v.1.15,2013-06-15 17:14:00,
2013-06-15 13:20:00,80.5,58.4,30.08,SSE,147,6.0,6.0,47,0.00,,,0.00,Wunderground v.1.15,2013-06-15 17:20:00,
2013-06-15 13:30:00,81.2,58.5,30.08,SSW,205,7.0,7.0,46,0.00,,,0.00,Wunderground v.1.15,2013-06-15 17:30:00,
2013-06-15 13:40:00,81.0,58.3,30.08,SE,135,7.0,7.0,46,0.00,,,0.00,Wunderground v.1.15,2013-06-15 17:40:00,
2013-06-15 13:50:00,80.3,56.4,30.08,South,169,7.0,9.0,44,0.00,,,0.00,Wunderground v.1.15,2013-06-15 17:50:00,
2013-06-15 14:00:00,81.6,56.3,30.08,ESE,122,6.0,8.0,42,0.00,,,0.00,Wunderground v.1.15,2013-06-15 18:00:00,
2013-06-15 14:10:00,81.7,54.3,30.08,SE,139,5.0,8.0,39,0.00,,,0.00,Wunderground v.1.15,2013-06-15 18:10:00,
2013-06-15 14:20:00,81.7,52.9,30.08,SSW,207,6.0,10.0,37,0.00,,,0.00,Wunderground v.1.15,2013-06-15 18:20:00,
2013-06-15 14:30:00,81.7,52.9,30.08,SSE,149,7.0,10.0,37,0.00,,,0.00,Wunderground v.1.15,2013-06-15 18:30:00,
2013-06-15 14:40:00,82.1,51.7,30.08,SSE,161,7.0,7.0,35,0.00,,,0.00,Wunderground v.1.15,2013-06-15 18:40:00,
2013-06-15 14:50:00,81.6,49.7,30.08,SSW,199,7.0,11.0,33,0.00,,,0.00,Wunderground v.1.15,2013-06-15 18:50:00,
2013-06-15 14:59:00,82.2,51.8,30.07,SSE,148,7.0,12.0,35,0.00,,,0.00,Wunderground v.1.15,2013-06-15 18:59:00,
2013-06-15 15:05:00,81.8,50.7,30.07,SSE,162,6.0,12.0,34,0.00,,,0.00,Wunderground v.1.15,2013-06-15 19:05:00,
2013-06-15 15:15:00,81.8,50.7,30.07,SSE,158,7.0,13.0,34,0.00,,,0.00,Wunderground v.1.15,2013-06-15 19:15:00,
2013-06-15 15:25:00,82.2,50.2,30.07,SSE,162,6.0,8.0,33,0.00,,,0.00,Wunderground v.1.15,2013-06-15 19:25:00,
2013-06-15 15:34:00,82.1,49.3,30.07,SW,219,7.0,7.0,32,0.00,,,0.00,Wunderground v.1.15,2013-06-15 19:34:00,
2013-06-15 15:40:00,81.5,48.8,30.07,SSW,210,8.0,9.0,32,0.00,,,0.00,Wunderground v.1.15,2013-06-15 19:40:00,
2013-06-15 15:50:00,81.5,50.4,30.07,SSE,160,8.0,8.0,34,0.00,,,0.00,Wunderground v.1.15,2013-06-15 19:50:00,
2013-06-15 16:00:00,81.1,50.1,30.08,SSW,194,8.0,9.0,34,0.00,,,0.00,Wunderground v.1.15,2013-06-15 20:00:00,
2013-06-15 16:10:00,81.7,49.0,30.07,SSE,161,6.0,6.0,32,0.00,,,0.00,Wunderground v.1.15,2013-06-15 20:10:00,
2013-06-15 16:20:00,81.4,48.7,30.07,South,191,8.0,8.0,32,0.00,,,0.00,Wunderground v.1.15,2013-06-15 20:20:00,
2013-06-15 16:30:00,82.0,50.9,30.07,SSW,195,7.0,13.0,34,0.00,,,0.00,Wunderground v.1.15,2013-06-15 20:30:00,
2013-06-15 16:39:00,82.0,50.1,30.07,South,177,7.0,7.0,33,0.00,,,0.00,Wunderground v.1.15,2013-06-15 20:39:00,
2013-06-15 16:45:00,81.8,45.5,30.06,SSE,165,7.0,7.0,28,0.00,,,0.00,Wunderground v.1.15,2013-06-15 20:45:00,
2013-06-15 16:55:00,81.5,48.8,30.07,SSW,211,7.0,8.0,32,0.00,,,0.00,Wunderground v.1.15,2013-06-15 20:55:00,
2013-06-15 17:05:00,81.7,48.1,30.06,SSW,196,7.0,10.0,31,0.00,,,0.00,Wunderground v.1.15,2013-06-15 21:05:00,
2013-06-15 17:15:00,81.1,50.1,30.06,SSE,162,7.0,8.0,34,0.00,,,0.00,Wunderground v.1.15,2013-06-15 21:15:00,
2013-06-15 17:24:00,81.4,49.5,30.07,SSE,157,7.0,7.0,33,0.00,,,0.00,Wunderground v.1.15,2013-06-15 21:24:00,
2013-06-15 17:30:00,81.3,47.8,30.07,SSW,199,7.0,9.0,31,0.00,,,0.00,Wunderground v.1.15,2013-06-15 21:30:00,
2013-06-15 17:40:00,81.5,47.1,30.06,SSE,155,6.0,7.0,30,0.00,,,0.00,Wunderground v.1.15,2013-06-15 21:40:00,
2013-06-15 17:50:00,81.3,48.6,30.06,SSE,160,7.0,7.0,32,0.00,,,0.00,Wunderground v.1.15,2013-06-15 21:50:00,
2013-06-15 18:00:00,80.9,49.9,30.06,South,169,8.0,8.0,34,0.00,,,0.00,Wunderground v.1.15,2013-06-15 22:00:00,
2013-06-15 18:10:00,80.6,51.9,30.06,SSE,164,7.0,7.0,37,0.00,,,0.00,Wunderground v.1.15,2013-06-15 22:10:00,
2013-06-15 18:20:00,80.2,53.7,30.06,South,180,6.0,8.0,40,0.00,,,0.00,Wunderground v.1.15,2013-06-15 22:20:00,
2013-06-15 18:30:00,80.2,53.0,30.06,SSE,161,6.0,6.0,39,0.00,,,0.00,Wunderground v.1.15,2013-06-15 22:30:00,
2013-06-15 18:40:00,79.8,54.7,30.06,SSW,200,6.0,7.0,42,0.00,,,0.00,Wunderground v.1.15,2013-06-15 22:40:00,
2013-06-15 18:50:00,79.7,55.2,30.07,SSW,198,6.0,6.0,43,0.00,,,0.00,Wunderground v.1.15,2013-06-15 22:50:00,
2013-06-15 19:00:00,79.3,54.9,30.06,SSE,166,7.0,7.0,43,0.00,,,0.00,Wunderground v.1.15,2013-06-15 23:00:00,
2013-06-15 19:09:00,79.1,55.3,30.07,SSW,195,5.0,7.0,44,0.00,,,0.00,Wunderground v.1.15,2013-06-15 23:09:00,
2013-06-15 19:15:00,78.9,55.8,30.07,SE,146,6.0,7.0,45,0.00,,,0.00,Wunderground v.1.15,2013-06-15 23:15:00,
2013-06-15 19:25:00,78.6,56.7,30.07,SSE,155,5.0,5.0,47,0.00,,,0.00,Wunderground v.1.15,2013-06-15 23:25:00,
2013-06-15 19:35:00,78.1,58.5,30.07,South,190,6.0,7.0,51,0.00,,,0.00,Wunderground v.1.15,2013-06-15 23:35:00,
2013-06-15 19:45:00,77.7,59.2,30.07,SSW,206,6.0,10.0,53,0.00,,,0.00,Wunderground v.1.15,2013-06-15 23:45:00,
2013-06-15 19:55:00,77.3,59.9,30.07,South,178,6.0,9.0,55,0.00,,,0.00,Wunderground v.1.15,2013-06-15 23:55:00,
2013-06-15 20:04:00,76.8,59.9,30.07,SSW,199,4.0,6.0,56,0.00,,,0.00,Wunderground v.1.15,2013-06-16 00:04:00,
2013-06-15 20:10:00,76.6,60.2,30.07,SSW,204,5.0,5.0,57,0.00,,,0.00,Wunderground v.1.15,2013-06-16 00:10:00,
2013-06-15 20:20:00,76.3,60.9,30.07,South,187,5.0,5.0,59,0.00,,,0.00,Wunderground v.1.15,2013-06-16 00:20:00,
2013-06-15 20:30:00,75.9,61.0,30.07,South,190,5.0,5.0,60,0.00,,,0.00,Wunderground v.1.15,2013-06-16 00:30:00,
2013-06-15 20:40:00,75.5,61.1,30.07,SSW,195,4.0,4.0,61,0.00,,,0.00,Wunderground v.1.15,2013-06-16 00:40:00,
2013-06-15 20:50:00,75.1,61.2,30.07,SSW,196,3.0,3.0,62,0.00,,,0.00,Wunderground v.1.15,2013-06-16 00:50:00,
2013-06-15 21:00:00,74.9,61.5,30.07,SSW,192,3.0,4.0,63,0.00,,,0.00,Wunderground v.1.15,2013-06-16 01:00:00,
2013-06-15 21:10:00,74.7,61.3,30.07,South,187,5.0,6.0,63,0.00,,,0.00,Wunderground v.1.15,2013-06-16 01:10:00,
2013-06-15 21:20:00,74.3,61.3,30.07,SSW,200,4.0,6.0,64,0.00,,,0.00,Wunderground v.1.15,2013-06-16 01:20:00,
2013-06-15 21:30:00,74.0,61.5,30.07,SSW,196,4.0,5.0,65,0.00,,,0.00,Wunderground v.1.15,2013-06-16 01:30:00,
2013-06-15 21:40:00,73.7,61.6,30.07,SSW,198,4.0,4.0,66,0.00,,,0.00,Wunderground v.1.15,2013-06-16 01:40:00,
2013-06-15 21:50:00,73.3,62.1,30.07,SSW,205,3.0,3.0,68,0.00,,,0.00,Wunderground v.1.15,2013-06-16 01:50:00,
2013-06-15 22:00:00,73.3,62.1,30.08,SSW,198,4.0,4.0,68,0.00,,,0.00,Wunderground v.1.15,2013-06-16 02:00:00,
2013-06-15 22:10:00,73.1,62.3,30.08,SSW,209,4.0,4.0,69,0.00,,,0.00,Wunderground v.1.15,2013-06-16 02:10:00,
2013-06-15 22:20:00,72.9,62.5,30.08,SW,215,3.0,3.0,70,0.00,,,0.00,Wunderground v.1.15,2013-06-16 02:20:00,
2013-06-15 22:30:00,72.7,62.8,30.09,SW,225,4.0,4.0,71,0.00,,,0.00,Wunderground v.1.15,2013-06-16 02:30:00,
2013-06-15 22:40:00,72.5,62.6,30.09,SW,216,4.0,4.0,71,0.00,,,0.00,Wunderground v.1.15,2013-06-16 02:40:00,
2013-06-15 22:50:00,72.3,62.8,30.09,SSW,207,3.0,3.0,72,0.00,,,0.00,Wunderground v.1.15,2013-06-16 02:50:00,
2013-06-15 23:00:00,72.2,63.1,30.09,SW,219,3.0,4.0,73,0.00,,,0.00,Wunderground v.1.15,2013-06-16 03:00:00,
2013-06-15 23:10:00,72.1,63.0,30.09,SSW,204,3.0,3.0,73,0.00,,,0.00,Wunderground v.1.15,2013-06-16 03:10:00,
2013-06-15 23:20:00,72.0,62.9,30.09,SW,215,3.0,3.0,73,0.00,,,0.00,Wunderground v.1.15,2013-06-16 03:20:00,
2013-06-15 23:29:00,71.9,63.2,30.09,SW,216,3.0,3.0,74,0.00,,,0.00,Wunderground v.1.15,2013-06-16 03:29:00,
2013-06-15 23:35:00,71.7,63.0,30.09,SW,221,3.0,5.0,74,0.00,,,0.00,Wunderground v.1.15,2013-06-16 03:35:00,
2013-06-15 23:45:00,71.5,63.2,30.09,SW,225,4.0,4.0,75,0.00,,,0.00,Wunderground v.1.15,2013-06-16 03:45:00,
2013-06-15 23:55:00,71.1,63.1,30.09,SSW,213,4.0,4.0,76,0.00,,,0.00,Wunderground v.1.15,2013-06-16 03:55:00,